User: anonymous   Login
Location: Campillo
(40.8621°N, 4.2488°W)
Time: 22:44:05
(UTC+00:00)
Language:

OE (NEXTSAT) - Orbit

View from above orbital plane
View from above orbital plane
View from above satellite
View from above satellite

Ground track
Ground track

The orbit data is extracted from the following two-line orbital elements,

1 30774U 07006C   21204.57873684  .00004947  00000-0  10618-3 0  9994
2 30774  46.0012  30.6299 0004843 350.6531   9.4284 15.46193653802861
Epoch (UTC): 23 July 2021 13:53:22
Eccentricity: 0.0004843
inclination: 46.0012°
perigee height: 424 km
apogee height: 431 km
right ascension of ascending node: 30.6299°
argument of perigee: 350.6531°
revolutions per day: 15.46193653
mean anomaly at epoch: 9.4284°
orbit number at epoch: 80286

The dashed part of the orbit path shows where the satellite is in the earth's shadow,  

DLR